Teterboro, NJ

10:58 PM EST on November 17, 2019 (GMT -0500)
Teterboro

Weather History for KTEB - September, 2019

Change the Weather History Date:

Wednesday, September 4, 2019

  Actual Average Record
Temperature  
Mean Temperature 77 °F -  
Max Temperature 93 °F 79 °F 96 °F (2008)
Min Temperature 66 °F 60 °F 51 °F (1997)
Cooling Degree Days 12    
Growing Degree Days 27 (Base 50)    
Moisture  
Dew Point 65 °F    
Average Humidity 69    
Maximum Humidity 87    
Minimum Humidity 49    
Precipitation  
Precipitation 0.00 in - - ()
Sea Level Pressure  
Sea Level Pressure 29.93 in    
Wind  
Wind Speed 5 mph ()    
Max Wind Speed 14 mph    
Max Gust Speed 22 mph    
Visibility 9.3 miles    
Events      
Averages and records for this station are not official NWS values.
T = Trace of Precipitation, MM = Missing Value Source: Averaged Metar Reports

Daily Weather History Graph

Daily Weather History Graph

Search for Another Location

Airport or City:

Astronomy

Sep. 04, 2019 Rise Set
Actual Time 6:25 AM EDT 7:24 PM EDT
Civil Twilight 5:57 AM EDT 7:52 PM EDT
Nautical Twilight 5:24 AM EDT 8:25 PM EDT
Astronomical Twilight 4:49 AM EDT 8:59 PM EDT
Moon 12:26 PM EDT (9/4) 10:54 PM EDT (9/4)
Length of Visible Light 13h 54m
Length of Day
12h 58m
Waxing Crescent, 34% of the Moon is Illuminated
Sep 4
Waxing Crescent
Sep 5
First Quarter
Sep 14
Full
Sep 21
Last Quarter
Sep 28
New

Hourly Weather History & Observations

Time (EDT) Temp. Heat Index Dew Point Humidity Pressure Visibility Wind Dir Wind Speed Gust Speed Precip Events Conditions
12:51 AM 69.1 °F - 61.0 °F 75% 30.02 in 10.0 mi South 4.6 mph - N/A   Clear
1:51 AM 66.0 °F - 60.1 °F 81% 30.01 in 10.0 mi Calm Calm - N/A   Clear
2:51 AM 66.0 °F - 61.0 °F 84% 29.97 in 10.0 mi Calm Calm - N/A   Clear
3:51 AM 66.9 °F - 62.1 °F 84% 29.98 in 10.0 mi Calm Calm - N/A   Scattered Clouds
4:23 AM 66.9 °F - 62.1 °F 84% 29.98 in 8.0 mi SW 3.5 mph - N/A   Overcast
4:51 AM 66.9 °F - 62.1 °F 84% 29.98 in 8.0 mi South 3.5 mph - N/A   Mostly Cloudy
5:51 AM 69.1 °F - 64.9 °F 87% 29.98 in 10.0 mi South 5.8 mph - N/A   Overcast
6:51 AM 69.1 °F - 64.9 °F 87% 29.99 in 4.0 mi SSW 8.1 mph - N/A   Mostly Cloudy
7:51 AM 69.1 °F - 64.9 °F 87% 29.98 in 5.0 mi SSW 6.9 mph - N/A   Mostly Cloudy
8:51 AM 71.1 °F - 64.9 °F 81% 29.97 in 8.0 mi SW 6.9 mph - N/A   Mostly Cloudy
9:14 AM 71.1 °F - 66.0 °F 84% 29.97 in 8.0 mi SSW 6.9 mph - N/A   Overcast
9:51 AM 75.9 °F - 66.0 °F 71% 29.95 in 10.0 mi Variable 6.9 mph - N/A   Mostly Cloudy
9:58 AM 75.0 °F - 66.9 °F 76% 29.95 in 10.0 mi South 4.6 mph - N/A   Partly Cloudy
10:51 AM 80.1 °F 82.7 °F 68.0 °F 67% 29.92 in 10.0 mi SSW 10.4 mph - N/A   Clear
11:51 AM 81.0 °F 83.8 °F 68.0 °F 65% 29.91 in 10.0 mi SSW 10.4 mph - N/A   Overcast
12:51 PM 84.9 °F 88.8 °F 69.1 °F 59% 29.88 in 10.0 mi SW 12.7 mph - N/A   Mostly Cloudy
1:51 PM 87.1 °F 90.6 °F 68.0 °F 53% 29.86 in 10.0 mi WSW 10.4 mph 20.7 mph N/A   Scattered Clouds
2:51 PM 88.0 °F 92.1 °F 69.1 °F 53% 29.84 in 10.0 mi SW 13.8 mph 21.9 mph N/A   Mostly Cloudy
3:51 PM 87.1 °F 90.6 °F 68.0 °F 53% 29.83 in 10.0 mi West 12.7 mph - N/A   Scattered Clouds
4:51 PM 88.0 °F 91.4 °F 68.0 °F 51% 29.83 in 10.0 mi West 10.4 mph 19.6 mph N/A   Partly Cloudy
5:51 PM 87.1 °F 89.9 °F 66.9 °F 51% 29.84 in 10.0 mi West 12.7 mph 19.6 mph N/A   Mostly Cloudy
6:51 PM 88.0 °F 90.7 °F 66.9 °F 49% 29.86 in 10.0 mi West 10.4 mph - N/A   Overcast
7:51 PM 82.9 °F 84.0 °F 63.0 °F 51% 29.88 in 10.0 mi NNW 9.2 mph - N/A   Partly Cloudy
8:51 PM 81.0 °F 82.2 °F 63.0 °F 54% 29.91 in 10.0 mi North 5.8 mph - N/A   Clear
9:51 PM 79.0 °F - 63.0 °F 58% 29.93 in 10.0 mi North 3.5 mph - N/A   Clear
10:51 PM 75.9 °F - 62.1 °F 62% 29.95 in 10.0 mi NNW 6.9 mph - N/A   Clear
11:51 PM 75.0 °F - 60.1 °F 60% 29.97 in 10.0 mi NNE 5.8 mph - N/A   Clear